Location: Home
(42.5358°N, 72.7383°W)
Time: 21:42:00
(UTC-04:00)

DIWATA 2B (PO-101) - Visible Passes

Search period start: 17 August 2022 00:00
Search period end: 27 August 2022 00:00
Orbit: 583 x 599 km, 98.0° (Epoch: 17 August)

Date Brightness Start Highest point End Pass type
(mag) Time Alt. Az. Time Alt. Az. Time Alt. Az.
17 Aug ? 02:40:32 37° N 02:40:32 37° N 02:43:11 10° N visible
18 Aug ? 02:49:00 35° N 02:49:00 35° N 02:51:29 10° N visible
19 Aug ? 02:57:28 32° NNW 02:57:28 32° NNW 02:59:44 10° NNW visible
20 Aug ? 01:29:21 12° NE 01:29:21 12° NE 01:30:24 10° NE visible
20 Aug ? 03:05:56 28° NNW 03:05:56 28° NNW 03:07:59 10° NNW visible
21 Aug ? 01:37:49 14° NE 01:37:49 14° NE 01:39:16 10° NNE visible
21 Aug ? 03:14:23 24° NNW 03:14:23 24° NNW 03:16:12 10° NNW visible
22 Aug ? 01:46:16 16° NE 01:46:16 16° NE 01:47:55 10° NNE visible
22 Aug ? 03:22:50 21° NW 03:22:50 21° NW 03:24:23 10° NNW visible
23 Aug ? 01:54:44 18° NE 01:54:44 18° NE 01:56:29 10° NNE visible
23 Aug ? 03:31:18 17° NW 03:31:18 17° NW 03:32:31 10° NNW visible
24 Aug ? 02:03:11 19° NE 02:03:11 19° NE 02:04:58 10° NNE visible
24 Aug ? 03:39:45 15° NW 03:39:45 15° NW 03:40:37 10° NW visible
25 Aug ? 02:11:38 21° NNE 02:11:38 21° NNE 02:13:25 10° N visible
25 Aug ? 03:48:12 12° NW 03:48:12 12° NW 03:48:39 10° NW visible
26 Aug ? 02:20:06 22° NNE 02:20:06 22° NNE 02:21:48 10° N visible
